Home   Weather   Rottenburg am Neckar   Past weeks

Flag for Germany Past Weather in Rottenburg am Neckar, Baden-Württemberg, Germany — Yesterday and Last 2 Weeks

Now
79 °F

Partly sunny.


Feels Like: 80 °F
Forecast: 58 / 72 °F
Wind: 3 mph from South

Location: Stuttgart-Echterdingen

Current Time: Jul 22, 2017 at 2:57:29 pm

Latest Report: Jul 22, 2017 at 2:20 pm


Visibility: N/A

Pressure: 29.95 "Hg

Humidity: 51%

Dew Point: 59 °F

Location of Rottenburg am NeckarLocation

Past Weather in Rottenburg am Neckar — Graph

°F

Rottenburg am Neckar Temperature Yesterday

Maximum temperature yesterday: 82 °F (at 4:50 pm)
Minimum temperature yesterday: 57 °F (at 3:50 am)
Average temperature yesterday: 69 °F

High & Low Weather Summary for the Past Weeks

 TemperatureHumidityPressure
High91 °F (Jul 19, 3:20 pm)100% (Jul 11, 12:50 am)30.30 "Hg (Jul 11, 12:50 am)
Low50 °F (Jul 16, 3:50 am)29% (Jul 19, 4:20 pm)29.83 "Hg (Jul 10, 3:50 am)
Average69 °F70%30.02 "Hg
* Reported Jul 7 1:20 pm — Jul 22 1:20 pm, Rottenburg am Neckar. Weather by CustomWeather, © 2017

Note: Actual official high and low records may vary slightly from our data, if they occured in-between our weather recording intervals... More about our weather records

Advertising

Rottenburg am Neckar Weather History for the Previous 24 Hours

Scroll right to see more
 ConditionsComfort  
Time TempWeatherWind HumidityBarometerVisibility
1:20 pm
Sat, Jul 22
77 °FPartly sunny.3 mph57%29.98 "HgN/A
12:50 pm77 °FPartly sunny.5 mph57%29.98 "HgN/A
12:20 pm75 °FScattered clouds.3 mph61%29.98 "HgN/A
11:50 am75 °FScattered clouds.3 mph61%29.98 "HgN/A
11:20 am73 °FScattered clouds.5 mph61%29.98 "HgN/A
10:50 am72 °FPassing clouds.2 mph73%29.98 "HgN/A
10:20 am72 °FPassing clouds.2 mph73%29.98 "HgN/A
9:50 am70 °FPassing clouds.5 mph83%29.98 "HgN/A
9:20 am70 °FPassing clouds.3 mph78%29.98 "HgN/A
8:50 am68 °FPassing clouds.5 mph83%29.98 "HgN/A
8:20 am66 °FPassing clouds.2 mph88%29.95 "HgN/A
7:50 am64 °FPassing clouds.1 mph94%29.95 "HgN/A
7:20 am63 °FPassing clouds.No wind94%29.95 "HgN/A
6:50 am63 °FFog.1 mph94%29.95 "HgN/A
6:20 am63 °FFog.2 mph94%29.95 "HgN/A
5:20 am63 °FClear.1 mph94%29.92 "Hg10 mi
4:50 am63 °FLight rain. Clear.1 mph94%29.92 "HgN/A
4:20 am63 °FPartly cloudy.1 mph94%29.92 "HgN/A
3:50 am63 °FPartly cloudy.1 mph94%29.92 "HgN/A
3:20 am63 °FPartly cloudy.1 mph94%29.92 "HgN/A
2:50 am63 °FPassing clouds.5 mph94%29.95 "HgN/A
2:20 am63 °FPartly cloudy.1 mph94%29.92 "HgN/A
1:50 am63 °FLight rain. Low clouds.3 mph94%29.92 "HgN/A
1:20 am63 °FLight rain. Mostly cloudy.3 mph94%29.92 "HgN/A
12:50 am63 °FRain. Mostly cloudy.10 mph94%29.92 "HgN/A
12:20 am63 °FRain. Low clouds.2 mph94%29.92 "HgN/A
11:50 pm
Fri, Jul 21
63 °FRain showers. Partly cloudy.7 mph94%29.95 "HgN/A
11:35 pm63 °FThundershowers. Passing clouds.3 mph94%29.95 "HgN/A
10:52 pm64 °FStrong thunderstorms. Passing clouds.12 mph88%29.95 "Hg4 mi
10:32 pm66 °FThunderstorms. Partly cloudy.14 mph78%29.92 "HgN/A
10:20 pm68 °FThundershowers. Partly cloudy.13 mph78%29.86 "HgN/A
9:50 pm68 °FPassing clouds.20 mph73%29.86 "HgN/A
9:31 pm73 °FPassing clouds.22 mph69%29.86 "HgN/A
8:50 pm79 °FPartly sunny.5 mph54%29.83 "HgN/A
8:20 pm79 °FBroken clouds.5 mph54%29.83 "HgN/A
7:50 pm77 °FPartly sunny.5 mph61%29.83 "HgN/A
7:20 pm79 °FPartly sunny.5 mph58%29.83 "HgN/A
6:50 pm81 °FPartly sunny.8 mph51%29.83 "HgN/A
6:20 pm81 °FPassing clouds.7 mph51%29.83 "HgN/A
5:50 pm82 °FSunny.10 mph48%29.86 "Hg10 mi
5:20 pm82 °FPassing clouds.9 mph48%29.86 "HgN/A
4:50 pm82 °FPassing clouds.9 mph48%29.89 "HgN/A
4:20 pm81 °FPassing clouds.6 mph51%29.89 "HgN/A
3:50 pm81 °FPassing clouds.5 mph51%29.89 "HgN/A
2:50 pm81 °FPassing clouds.6 mph48%29.92 "HgN/A
2:20 pm79 °FPassing clouds.5 mph51%29.92 "HgN/A
Weather by CustomWeather, © 2017

See weather overviewHow to use our weather pages